GW0525 Weather Reports


Display with metric or nautical units.
time (UTC)temp
F
wind
direction
speed
MPH
gust
MPH
rain 1hr
in
rain 24hr
in
rain mn
in
humidity
%
barometer
mb
20260506050104 34 294 5.0 7.0 0.00 0.00 0.00 46 1017.4
20260506044604 36 308 4.0 7.0 0.00 0.00 0.00 44 1017.4
20260506043059 37 287 7.0 8.0 0.00 0.00 0.00 42 1017.4
20260506041608 38 292 4.0 5.0 0.00 0.00 0.00 42 1017.4
20260506040059 38 306 3.0 4.0 0.00 0.00 0.00 42 1017.5
20260506034559 37 304 3.0 5.0 0.00 0.00 0.00 42 1017.5
20260506033102 37 314 3.0 4.0 0.00 0.00 0.00 43 1017.4
20260506031606 36 308 2.0 4.0 0.00 0.00 0.00 45 1017.4
20260506030100 36 324 4.0 5.0 0.00 0.00 0.00 44 1017.3
20260506024557 36 331 4.0 6.0 0.00 0.00 0.00 44 1017.2
20260506023108 36 349 5.0 9.0 0.00 0.00 0.00 44 1017.1
20260506021612 37 340 6.0 10.0 0.00 0.00 0.00 42 1016.9
20260506020058 39 346 6.0 10.0 0.00 0.00 0.00 40 1016.7
20260506014601 40 339 7.0 12.0 0.00 0.00 0.00 40 1016.7
20260506013110 40 31 12.0 16.0 0.00 0.00 0.00 38 1016.6
20260506011617 41 342 14.0 23.0 0.00 0.00 0.00 37 1016.5
20260506004601 42 24 15.0 22.0 0.00 0.00 0.00 36 1016.4
20260506003100 42 22 16.0 25.0 0.00 0.00 0.00 36 1016.4
20260506001559 42 336 16.0 26.0 0.00 0.00 0.00 36 1016.3
20260506000101 42 335 16.0 23.0 0.00 0.00 0.00 36 1016.4
20260505234559 42 331 14.0 24.0 0.00 0.00 0.00 36 1016.2
20260505233105 42 5 21.0 26.0 0.00 0.00 0.00 36 1016.1
20260505231613 42 59 18.0 25.0 0.00 0.00 0.00 37 1016.2
20260505230059 41 343 20.0 28.0 0.00 0.00 0.00 36 1016.2
20260505224604 42 345 18.0 28.0 0.00 0.00 0.00 37 1016.2
20260505223101 42 333 20.0 31.0 0.00 0.00 0.00 36 1016.1
20260505221604 42 338 20.0 32.0 0.00 0.00 0.00 37 1016.0
20260505220101 42 344 20.0 30.0 0.00 0.00 0.00 37 1016.0
20260505214600 42 333 19.0 29.0 0.00 0.00 0.00 37 1016.2
20260505213056 41 335 22.0 30.0 0.00 0.00 0.00 36 1016.2
20260505211556 41 335 22.0 33.0 0.00 0.00 0.00 37 1016.3
20260505210058 42 316 25.0 32.0 0.00 0.00 0.00 36 1016.2
20260505204559 41 19 23.0 33.0 0.00 0.00 0.00 37 1016.2
20260505203120 41 340 21.0 26.0 0.00 0.00 0.00 36 1016.3
20260505201604 42 15 18.0 30.0 0.00 0.00 0.00 36 1016.4
20260505200059 41 324 22.0 34.0 0.00 0.00 0.00 35 1016.4
20260505194558 41 338 15.0 29.0 0.00 0.00 0.00 36 1016.3
20260505193100 42 346 17.0 23.0 0.00 0.00 0.00 35 1016.3
20260505191611 40 22 20.0 29.0 0.00 0.00 0.00 38 1016.3
20260505190057 40 339 18.0 26.0 0.00 0.00 0.00 37 1016.3
20260505184557 40 338 21.0 41.0 0.00 0.00 0.00 38 1016.4
20260505183057 40 317 17.0 26.0 0.00 0.00 0.00 38 1016.3
20260505181559 39 331 22.0 32.0 0.00 0.00 0.00 40 1016.2
20260505180108 39 320 20.0 31.0 0.00 0.00 0.00 40 1016.3
20260505174606 39 339 18.0 35.0 0.00 0.00 0.00 40 1016.2
20260505173100 39 338 19.0 31.0 0.00 0.00 0.00 41 1016.4
20260505171601 38 20 22.0 29.0 0.00 0.00 0.00 44 1016.3
20260505170111 39 360 22.0 31.0 0.00 0.00 0.00 43 1016.2
20260505164559 38 351 21.0 30.0 0.00 0.00 0.00 45 1016.4
20260505163057 37 343 23.0 30.0 0.00 0.00 0.00 45 1016.2
20260505161616 37 343 22.0 32.0 0.00 0.00 0.00 47 1016.2
20260505160104 36 29 22.0 30.0 0.00 0.00 0.00 50 1016.2
20260505153107 36 332 21.0 31.0 0.00 0.00 0.00 47 1016.2
20260505151605 36 9 21.0 29.0 0.00 0.00 0.00 51 1016.1
20260505140105 35 14 21.0 25.0 0.00 0.00 0.00 61 1015.7
20260505124603 33 331 12.0 18.0 0.00 0.00 0.00 68 1015.2
20260505123059 33 337 15.0 20.0 0.00 0.00 0.00 67 1015.1
20260505121625 33 343 17.0 21.0 0.00 0.00 0.00 66 1015.0
20260505120056 33 331 14.0 18.0 0.00 0.00 0.00 66 1015.0
20260505114557 34 328 12.0 20.0 0.00 0.00 0.00 66 1014.8
20260505113103 33 319 7.0 11.0 0.00 0.00 0.00 66 1014.6
20260505111559 33 329 5.0 9.0 0.00 0.00 0.00 66 1014.7
20260505101559 33 302 6.0 10.0 0.00 0.00 0.00 64 1014.7
20260505100108 33 296 4.0 7.0 0.00 0.00 0.00 65 1014.5
20260505094609 33 290 4.0 7.0 0.00 0.00 0.00 65 1014.5
20260505093101 33 299 4.0 7.0 0.00 0.00 0.00 64 1014.4
20260505091600 33 286 4.0 7.0 0.00 0.00 0.00 64 1014.4
20260505090107 33 292 3.0 5.0 0.00 0.00 0.00 63 1014.4
20260505084604 33 299 3.0 7.0 0.00 0.00 0.00 62 1014.4
20260505083103 34 317 5.0 11.0 0.00 0.00 0.00 61 1014.4
20260505081604 34 331 8.0 12.0 0.00 0.00 0.00 60 1014.4
20260505080059 34 331 8.0 11.0 0.00 0.00 0.00 60 1014.3
20260505074559 34 327 7.0 10.0 0.00 0.00 0.00 59 1014.2
20260505073100 34 339 6.0 8.0 0.00 0.00 0.00 60 1014.3
20260505071601 34 331 5.0 12.0 0.00 0.00 0.00 59 1014.3
20260505064600 35 336 5.0 9.0 0.00 0.00 0.00 59 1014.4
20260505063056 35 333 7.0 9.0 0.00 0.00 0.00 59 1014.4
20260505061607 35 329 5.0 9.0 0.00 0.00 0.00 58 1014.3
20260505060059 35 19 7.0 10.0 0.00 0.00 0.00 57 1014.2
20260505054558 36 338 9.0 14.0 0.00 0.00 0.00 56 1014.2
20260505053108 36 38 9.0 16.0 0.00 0.00 0.00 55 1014.2